Weather History for KGSO - October, 2013

Change the Weather History Date:

Friday, October 4, 2013

  Actual Average Record
Temperature  
Mean Temperature 74 °F 63 °F  
Max Temperature 87 °F 74 °F 94 °F (1954)
Min Temperature 60 °F 53 °F 31 °F (1974)
Degree Days  
Heating Degree Days 0 4  
Month to date heating degree days 0 13  
Since 1 July heating degree days 16 44  
Cooling Degree Days 9 2  
Month to date cooling degree days 24 9  
Year to date cooling degree days 1355 1456  
Growing Degree Days 24 (Base 50)    
Moisture  
Dew Point 60 °F    
Average Humidity 67    
Maximum Humidity 97    
Minimum Humidity 37    
Precipitation  
Precipitation 0.00 in 0.10 in 3.90 in (1964)
Month to date precipitation 0.00 0.40  
Year to date precipitation 40.52 33.38  
Sea Level Pressure  
Sea Level Pressure 30.09 in    
Wind  
Wind Speed 4 mph (SW)    
Max Wind Speed 8 mph    
Max Gust Speed 10 mph    
Visibility 10 miles    
Events      
T = Trace of Precipitation, MM = Missing Value Source: NWS Daily Summary

Daily Weather History Graph

Daily Weather History Graph

Search for Another Location

Airport or City:

Trip Planner

Search our weather history database for the weather conditions in past years. The results will help you decide how hot, cold, wet, or windy it might be!

Date:

Astronomy

Oct. 04, 2013 Rise Set
Actual Time 7:17 AM EDT 6:58 PM EDT
Civil Twilight 6:51 AM EDT 7:24 PM EDT
Nautical Twilight 6:22 AM EDT 7:53 PM EDT
Astronomical Twilight 5:52 AM EDT 8:23 PM EDT
Moon 6:51 AM EDT (10/4) 6:41 PM EDT (10/4)
Length of Visible Light 12h 32m
Length of Day
11h 41m
Waning Crescent, 0% of the Moon is Illuminated
Oct 4
Waning Crescent
Oct 4
New
Oct 11
First Quarter
Oct 18
Full
Oct 26
Last Quarter

Hourly Weather History & Observations

Time (EDT) Temp. Heat Index Dew Point Humidity Pressure Visibility Wind Dir Wind Speed Gust Speed Precip Events Conditions
12:54 AM 66.0 °F - 60.1 °F 81% 30.09 in 10.0 mi SSW 4.6 mph - N/A   Clear
1:54 AM 64.0 °F - 60.1 °F 87% 30.10 in 10.0 mi SSW 3.5 mph - N/A   Clear
2:54 AM 64.9 °F - 59.0 °F 81% 30.09 in 10.0 mi WSW 5.8 mph - N/A   Clear
3:54 AM 63.0 °F - 57.9 °F 84% 30.09 in 10.0 mi SW 4.6 mph - N/A   Clear
4:54 AM 61.0 °F - 57.9 °F 90% 30.09 in 10.0 mi SSW 5.8 mph - N/A   Clear
5:54 AM 61.0 °F - 57.9 °F 90% 30.10 in 9.0 mi SW 4.6 mph - N/A   Clear
6:54 AM 60.1 °F - 57.9 °F 93% 30.11 in 8.0 mi SW 4.6 mph - N/A   Partly Cloudy
7:54 AM 61.0 °F - 59.0 °F 93% 30.12 in 5.0 mi SW 3.5 mph - N/A   Partly Cloudy
8:54 AM 66.9 °F - 61.0 °F 81% 30.13 in 8.0 mi WSW 5.8 mph - N/A   Clear
9:54 AM 73.0 °F - 62.1 °F 68% 30.13 in 10.0 mi West 3.5 mph - N/A   Clear
10:54 AM 77.0 °F - 62.1 °F 60% 30.13 in 10.0 mi Variable 3.5 mph - N/A   Clear
11:54 AM 80.1 °F 81.1 °F 61.0 °F 52% 30.13 in 10.0 mi Calm Calm - N/A   Partly Cloudy
12:54 PM 82.9 °F 83.2 °F 60.1 °F 46% 30.11 in 10.0 mi Variable 4.6 mph - N/A   Scattered Clouds
1:54 PM 84.0 °F 83.8 °F 59.0 °F 43% 30.09 in 10.0 mi ENE 4.6 mph - N/A   Scattered Clouds
2:54 PM 82.9 °F 82.6 °F 57.9 °F 42% 30.07 in 10.0 mi Calm Calm - N/A   Scattered Clouds
3:54 PM 86.0 °F 85.0 °F 57.9 °F 38% 30.06 in 10.0 mi Calm Calm - N/A   Scattered Clouds
4:54 PM 84.0 °F 83.5 °F 57.9 °F 41% 30.05 in 10.0 mi South 5.8 mph - N/A   Partly Cloudy
5:54 PM 82.9 °F 82.6 °F 57.9 °F 42% 30.06 in 10.0 mi WSW 4.6 mph - N/A   Partly Cloudy
6:54 PM 79.0 °F - 57.9 °F 48% 30.06 in 10.0 mi WSW 3.5 mph - N/A   Partly Cloudy
7:54 PM 75.0 °F - 60.1 °F 60% 30.08 in 10.0 mi SW 4.6 mph - N/A   Clear
8:54 PM 73.9 °F - 61.0 °F 64% 30.09 in 10.0 mi WSW 4.6 mph - N/A   Clear
9:54 PM 71.1 °F - 61.0 °F 70% 30.10 in 10.0 mi Calm Calm - N/A   Clear
10:54 PM 68.0 °F - 61.0 °F 78% 30.10 in 10.0 mi SW 3.5 mph - N/A   Clear
11:54 PM 69.1 °F - 61.0 °F 75% 30.09 in 10.0 mi SSW 3.5 mph - N/A   Clear